Pagrindinis puslapis
METAR-TAF:

METAR-TAF

Oro uostai :

Ormond Beach Municipal Airport

Ormond Beach, Florida, Jungtinės Amerikos Valstijos

platuma: 29-18-04N, ilguma: 081-06-49W, Aukštis: 9 m

Dabartinis oras

Ataskaita buvo paskelbta 40 minutes, ne 23:50 UTC
Vėjas 8 kt iš Pietryčių
Temperatūra 20°C
Drėgmė 100%
Slėgis 1016 hPa
Matomumas: 16.1 km
Giedras dangus

METAR: KOMN 242350Z 14008KT 10SM CLR 20/20 A2999 RMK LAST

Laikas: 19:30 (00:30 UTC)


TAF: trūkstamas

Orai ataskaitas ir orų prognozės (METAR, TAF).

turimą stotys yra geltonos ir raudonos taškus žemėlapyje.

Perkelti pele per norėdami pamatyti stoties vardą.

Tada spustelėkite, norėdami matyti oro stebėjimo ir prognozės.

Norėdami pakeisti žemėlapį: spustelėkite ant žalios mygtukų su juodo kryžiaus žemyn,; žalią mygtuką su brūkšneliu, jei norite nutolinti; arba žalių rodyklių gretimoms žemėlapius.


METAR-TAF: